CFG2009 WAAA-WARR

Flight info

Callsign CFG2009
Flight time 1h 14m
Altitude 38000
Route ENDOG T16 KOLTA
Aircraft A20N/M-SDE2E3FGHIRWXY/LB1

Departure

Time 2026-05-07 07:07
Airport Sultan Hasanuddin International Airport (WAAA)

Arrival

Time 2026-05-07 08:21
Airport Juanda International Airport (WARR)
Time Latitude Longitude Altitude Speed Heading
2026-05-07 06:38 -5.07711 119.54769 40 ft 0 kts 299°
2026-05-07 06:55 -5.07722 119.54789 38 ft 4 kts 304°
2026-05-07 06:55 -5.07739 119.54809 40 ft 4 kts 322°
2026-05-07 06:55 -5.07761 119.54819 37 ft 3 kts 22°
2026-05-07 06:56 -5.07765 119.54817 37 ft 1 kts 30°
2026-05-07 07:01 -5.07752 119.54824 40 ft 7 kts 30°
2026-05-07 07:01 -5.07683 119.54865 41 ft 15 kts 30°
2026-05-07 07:02 -5.07594 119.54932 41 ft 17 kts 70°
2026-05-07 07:02 -5.07600 119.55048 40 ft 18 kts 124°
2026-05-07 07:02 -5.07591 119.55145 41 ft 17 kts 31°
2026-05-07 07:02 -5.07481 119.55208 41 ft 19 kts 30°
2026-05-07 07:03 -5.07357 119.55279 41 ft 22 kts 29°
2026-05-07 07:03 -5.07220 119.55359 41 ft 24 kts 30°
2026-05-07 07:03 -5.07072 119.55444 41 ft 25 kts 30°
2026-05-07 07:03 -5.06914 119.55534 40 ft 27 kts 30°
2026-05-07 07:04 -5.06805 119.55598 41 ft 28 kts 30°
2026-05-07 07:04 -5.06651 119.55686 41 ft 23 kts 29°
2026-05-07 07:04 -5.06509 119.55779 42 ft 14 kts 62°
2026-05-07 07:04 -5.06552 119.55854 43 ft 15 kts 130°
2026-05-07 07:05 -5.06635 119.55951 42 ft 22 kts 130°
2026-05-07 07:05 -5.06743 119.56079 41 ft 26 kts 130°
2026-05-07 07:05 -5.06818 119.56178 42 ft 25 kts 110°
2026-05-07 07:05 -5.06856 119.56230 42 ft 4 kts 227°
2026-05-07 07:06 -5.06845 119.56200 42 ft 0 kts 309°
2026-05-07 07:06 -5.06845 119.56199 42 ft 0 kts 309°
2026-05-07 07:06 -5.06724 119.56059 41 ft 63 kts 312°
2026-05-07 07:06 -5.06299 119.55559 43 ft 123 kts 311°
2026-05-07 07:07 -5.05674 119.54814 297 ft 146 kts 310°
2026-05-07 07:07 -5.05004 119.54009 819 ft 155 kts 309°
2026-05-07 07:07 -5.04351 119.53125 1290 ft 162 kts 292°
2026-05-07 07:07 -5.04140 119.51988 1724 ft 174 kts 272°
2026-05-07 07:08 -5.04101 119.50727 2170 ft 187 kts 269°
2026-05-07 07:08 -5.04078 119.49387 2632 ft 199 kts 272°
2026-05-07 07:08 -5.03971 119.47949 2952 ft 213 kts 274°
2026-05-07 07:08 -5.03817 119.46418 3233 ft 235 kts 276°
2026-05-07 07:09 -5.03601 119.44702 3671 ft 261 kts 278°
2026-05-07 07:09 -5.03335 119.42839 4093 ft 281 kts 278°
2026-05-07 07:09 -5.03043 119.40880 5008 ft 284 kts 278°
2026-05-07 07:09 -5.02754 119.38903 5990 ft 290 kts 278°
2026-05-07 07:10 -5.02477 119.36888 6932 ft 293 kts 278°
2026-05-07 07:10 -5.02192 119.34863 7914 ft 294 kts 278°
2026-05-07 07:10 -5.01906 119.32819 8888 ft 298 kts 278°
2026-05-07 07:10 -5.01611 119.30755 9852 ft 300 kts 278°
2026-05-07 07:11 -5.01486 119.28628 10466 ft 315 kts 263°
2026-05-07 07:11 -5.02118 119.26452 10819 ft 337 kts 246°
2026-05-07 07:11 -5.03155 119.24260 11131 ft 357 kts 242°
2026-05-07 07:11 -5.04312 119.22019 11823 ft 364 kts 242°
2026-05-07 07:12 -5.05457 119.19763 12729 ft 364 kts 243°
2026-05-07 07:12 -5.06582 119.17479 13515 ft 368 kts 243°
2026-05-07 07:12 -5.07687 119.15177 14125 ft 374 kts 243°
2026-05-07 07:12 -5.08810 119.12813 14802 ft 375 kts 244°
2026-05-07 07:13 -5.09938 119.10428 15509 ft 378 kts 244°
2026-05-07 07:13 -5.11075 119.08036 16112 ft 383 kts 244°
2026-05-07 07:13 -5.12224 119.05607 16690 ft 388 kts 244°
2026-05-07 07:13 -5.13380 119.03151 17409 ft 389 kts 244°
2026-05-07 07:14 -5.14541 119.00685 18042 ft 393 kts 244°
2026-05-07 07:14 -5.15717 118.98191 18528 ft 399 kts 244°
2026-05-07 07:14 -5.16908 118.95670 19086 ft 401 kts 244°
2026-05-07 07:14 -5.18100 118.93139 19693 ft 403 kts 244°
2026-05-07 07:15 -5.19312 118.90574 20125 ft 409 kts 244°
2026-05-07 07:15 -5.20534 118.87988 20669 ft 411 kts 244°
2026-05-07 07:15 -5.21765 118.85383 21212 ft 413 kts 244°
2026-05-07 07:15 -5.23005 118.82757 21628 ft 419 kts 244°
2026-05-07 07:16 -5.24264 118.80096 22162 ft 423 kts 244°
2026-05-07 07:16 -5.25514 118.77451 22708 ft 425 kts 244°
2026-05-07 07:16 -5.26781 118.74757 23126 ft 430 kts 245°
2026-05-07 07:16 -5.28066 118.72030 23513 ft 434 kts 245°
2026-05-07 07:17 -5.29359 118.69293 24020 ft 433 kts 244°
2026-05-07 07:17 -5.30649 118.66560 24421 ft 435 kts 244°
2026-05-07 07:17 -5.31952 118.63800 24819 ft 438 kts 244°
2026-05-07 07:17 -5.33258 118.61031 25263 ft 439 kts 244°
2026-05-07 07:18 -5.34568 118.58255 25674 ft 442 kts 244°
2026-05-07 07:18 -5.35883 118.55469 26128 ft 441 kts 244°
2026-05-07 07:18 -5.37191 118.52692 26621 ft 440 kts 244°
2026-05-07 07:18 -5.38502 118.49907 27009 ft 441 kts 244°
2026-05-07 07:19 -5.39801 118.47145 27339 ft 446 kts 244°
2026-05-07 07:19 -5.41128 118.44328 27722 ft 447 kts 244°
2026-05-07 07:19 -5.42457 118.41509 28135 ft 447 kts 244°
2026-05-07 07:19 -5.43791 118.38680 28383 ft 451 kts 244°
2026-05-07 07:20 -5.45135 118.35827 28711 ft 452 kts 243°
2026-05-07 07:20 -5.46476 118.32982 29172 ft 450 kts 243°
2026-05-07 07:20 -5.47823 118.30122 29383 ft 455 kts 243°
2026-05-07 07:20 -5.49179 118.27240 29725 ft 456 kts 243°
2026-05-07 07:21 -5.50537 118.24354 30049 ft 458 kts 244°
2026-05-07 07:21 -5.51904 118.21449 30225 ft 462 kts 244°
2026-05-07 07:21 -5.53259 118.18564 30561 ft 461 kts 244°
2026-05-07 07:21 -5.54629 118.15642 30786 ft 465 kts 244°
2026-05-07 07:22 -5.56004 118.12690 31032 ft 466 kts 245°
2026-05-07 07:22 -5.57154 118.09649 31397 ft 466 kts 250°
2026-05-07 07:22 -5.58202 118.06569 31732 ft 466 kts 250°
2026-05-07 07:22 -5.59256 118.03486 32064 ft 466 kts 250°
2026-05-07 07:23 -5.60310 118.00406 32456 ft 465 kts 250°
2026-05-07 07:23 -5.61364 117.97328 32753 ft 466 kts 250°
2026-05-07 07:23 -5.62415 117.94256 33139 ft 464 kts 250°
2026-05-07 07:23 -5.63468 117.91183 33480 ft 464 kts 250°
2026-05-07 07:24 -5.64519 117.88110 33824 ft 465 kts 250°
2026-05-07 07:24 -5.65563 117.85050 34177 ft 462 kts 250°
2026-05-07 07:24 -5.66605 117.82002 34471 ft 461 kts 250°
2026-05-07 07:24 -5.67647 117.78956 34764 ft 461 kts 250°
2026-05-07 07:25 -5.69710 117.72940 35265 ft 459 kts 250°
2026-05-07 07:25 -5.70739 117.69912 35584 ft 457 kts 250°
2026-05-07 07:25 -5.71776 117.66853 35938 ft 456 kts 250°
2026-05-07 07:26 -5.72789 117.63877 36195 ft 456 kts 250°
2026-05-07 07:26 -5.73814 117.60871 36519 ft 454 kts 250°
2026-05-07 07:26 -5.74834 117.57886 36935 ft 452 kts 250°
2026-05-07 07:26 -5.75854 117.54909 37217 ft 451 kts 250°
2026-05-07 07:27 -5.76868 117.51932 37500 ft 450 kts 250°
2026-05-07 07:27 -5.77878 117.48965 37680 ft 450 kts 250°
2026-05-07 07:27 -5.78888 117.46000 37783 ft 448 kts 250°
2026-05-07 07:28 -5.80897 117.40112 37814 ft 445 kts 250°
2026-05-07 07:28 -5.82908 117.34207 37810 ft 446 kts 250°
2026-05-07 07:29 -5.84900 117.28365 37813 ft 448 kts 250°
2026-05-07 07:29 -5.86899 117.22472 37813 ft 445 kts 250°
2026-05-07 07:30 -5.88366 117.16401 37812 ft 447 kts 259°
2026-05-07 07:30 -5.89442 117.10264 37811 ft 447 kts 259°
2026-05-07 07:31 -5.90532 117.04116 37814 ft 444 kts 258°
2026-05-07 07:31 -5.91618 116.97973 37813 ft 448 kts 258°
2026-05-07 07:32 -5.92709 116.91833 37811 ft 445 kts 258°
2026-05-07 07:32 -5.93798 116.85728 37809 ft 448 kts 258°
2026-05-07 07:33 -5.94886 116.79568 37813 ft 446 kts 259°
2026-05-07 07:33 -5.95968 116.73412 37811 ft 447 kts 258°
2026-05-07 07:34 -5.97061 116.67259 37813 ft 449 kts 258°
2026-05-07 07:34 -5.98146 116.61097 37812 ft 446 kts 259°
2026-05-07 07:35 -5.99230 116.54948 37813 ft 449 kts 259°
2026-05-07 07:35 -6.00304 116.48837 37815 ft 445 kts 259°
2026-05-07 07:36 -6.01391 116.42662 37810 ft 448 kts 259°
2026-05-07 07:36 -6.02475 116.36523 37808 ft 446 kts 259°
2026-05-07 07:37 -6.03557 116.30361 37813 ft 446 kts 259°
2026-05-07 07:37 -6.04631 116.24209 37812 ft 448 kts 259°
2026-05-07 07:38 -6.05716 116.18066 37813 ft 446 kts 259°
2026-05-07 07:38 -6.06796 116.11898 37811 ft 447 kts 259°
2026-05-07 07:39 -6.07879 116.05747 37812 ft 448 kts 259°
2026-05-07 07:39 -6.08957 115.99613 37811 ft 446 kts 259°
2026-05-07 07:40 -6.10037 115.93447 37815 ft 450 kts 259°
2026-05-07 07:40 -6.11118 115.87279 37813 ft 448 kts 259°
2026-05-07 07:41 -6.12204 115.81087 37811 ft 449 kts 259°
2026-05-07 07:41 -6.13279 115.74917 37812 ft 448 kts 259°
2026-05-07 07:42 -6.14356 115.68765 37811 ft 446 kts 260°
2026-05-07 07:42 -6.15421 115.62611 37810 ft 450 kts 260°
2026-05-07 07:43 -6.16501 115.56425 37813 ft 448 kts 260°
2026-05-07 07:43 -6.17582 115.50239 37812 ft 450 kts 260°
2026-05-07 07:44 -6.18659 115.44068 37816 ft 448 kts 260°
2026-05-07 07:44 -6.19733 115.37925 37812 ft 446 kts 260°
2026-05-07 07:45 -6.20799 115.31778 37814 ft 448 kts 260°
2026-05-07 07:45 -6.21872 115.25586 37812 ft 448 kts 260°
2026-05-07 07:46 -6.22945 115.19407 37810 ft 450 kts 260°
2026-05-07 07:46 -6.24015 115.13226 37812 ft 447 kts 260°
2026-05-07 07:47 -6.25089 115.07030 37809 ft 449 kts 260°
2026-05-07 07:47 -6.26153 115.00891 37816 ft 448 kts 260°
2026-05-07 07:48 -6.27226 114.94685 37813 ft 449 kts 260°
2026-05-07 07:48 -6.28298 114.88495 37808 ft 450 kts 260°
2026-05-07 07:49 -6.29371 114.82290 37811 ft 449 kts 260°
2026-05-07 07:49 -6.30438 114.76079 37809 ft 451 kts 260°
2026-05-07 07:50 -6.31504 114.69938 37812 ft 449 kts 260°
2026-05-07 07:50 -6.32581 114.63732 37809 ft 449 kts 260°
2026-05-07 07:51 -6.33646 114.57549 37811 ft 451 kts 260°
2026-05-07 07:51 -6.34536 114.52387 37809 ft 448 kts 260°
2026-05-07 07:52 -6.35597 114.46188 37812 ft 451 kts 260°
2026-05-07 07:52 -6.36668 114.39991 37814 ft 450 kts 260°
2026-05-07 07:53 -6.37742 114.33787 37813 ft 451 kts 260°
2026-05-07 07:53 -6.38795 114.27634 37811 ft 451 kts 260°
2026-05-07 07:54 -6.39851 114.21422 37812 ft 450 kts 260°
2026-05-07 07:54 -6.40915 114.15221 37815 ft 452 kts 260°
2026-05-07 07:55 -6.41976 114.09028 37818 ft 448 kts 260°
2026-05-07 07:55 -6.43041 114.02814 37818 ft 450 kts 260°
2026-05-07 07:56 -6.44106 113.96631 37819 ft 450 kts 260°
2026-05-07 07:56 -6.45167 113.90432 37818 ft 448 kts 260°
2026-05-07 07:57 -6.46222 113.84286 37820 ft 451 kts 260°
2026-05-07 07:57 -6.47428 113.78109 37817 ft 448 kts 257°
2026-05-07 07:58 -6.48880 113.71994 37816 ft 449 kts 257°
2026-05-07 07:58 -6.50298 113.65906 37545 ft 445 kts 257°
2026-05-07 07:58 -6.50991 113.62869 37021 ft 447 kts 257°
2026-05-07 07:59 -6.51680 113.59835 36349 ft 451 kts 257°
2026-05-07 07:59 -6.52387 113.56713 35663 ft 453 kts 257°
2026-05-07 07:59 -6.53088 113.53616 35009 ft 454 kts 257°
2026-05-07 07:59 -6.53786 113.50520 34365 ft 454 kts 257°
2026-05-07 08:00 -6.54481 113.47433 33725 ft 452 kts 257°
2026-05-07 08:00 -6.55177 113.44344 33018 ft 456 kts 256°
2026-05-07 08:00 -6.55885 113.41221 32323 ft 460 kts 256°
2026-05-07 08:00 -6.56600 113.38066 31636 ft 463 kts 256°
2026-05-07 08:01 -6.57318 113.34894 30962 ft 467 kts 256°
2026-05-07 08:01 -6.58036 113.31706 30302 ft 467 kts 256°
2026-05-07 08:01 -6.58752 113.28525 29610 ft 465 kts 256°
2026-05-07 08:01 -6.59458 113.25396 28870 ft 462 kts 256°
2026-05-07 08:02 -6.60167 113.22253 28144 ft 459 kts 256°
2026-05-07 08:02 -6.60870 113.19132 27448 ft 456 kts 256°
2026-05-07 08:02 -6.61566 113.16037 26766 ft 452 kts 256°
2026-05-07 08:02 -6.62260 113.12969 26111 ft 448 kts 256°
2026-05-07 08:03 -6.62948 113.09921 25476 ft 445 kts 256°
2026-05-07 08:03 -6.63636 113.06898 24852 ft 441 kts 256°
2026-05-07 08:03 -6.64318 113.03894 24251 ft 438 kts 257°
2026-05-07 08:03 -6.64989 113.00922 23669 ft 434 kts 257°
2026-05-07 08:04 -6.65655 112.97976 23038 ft 430 kts 257°
2026-05-07 08:04 -6.66308 112.95089 22365 ft 426 kts 257°
2026-05-07 08:04 -6.66960 112.92198 21714 ft 423 kts 257°
2026-05-07 08:04 -6.67606 112.89308 21073 ft 421 kts 257°
2026-05-07 08:05 -6.68248 112.86447 20459 ft 417 kts 257°
2026-05-07 08:05 -6.68885 112.83615 19862 ft 413 kts 257°
2026-05-07 08:05 -6.69519 112.80807 19281 ft 408 kts 257°
2026-05-07 08:05 -6.70140 112.78044 18780 ft 402 kts 257°
2026-05-07 08:06 -6.70745 112.75358 18313 ft 395 kts 257°
2026-05-07 08:06 -6.71347 112.72685 17815 ft 389 kts 257°
2026-05-07 08:06 -6.71940 112.70049 17301 ft 384 kts 256°
2026-05-07 08:06 -6.72530 112.67430 16792 ft 385 kts 257°
2026-05-07 08:07 -6.73113 112.64826 16302 ft 379 kts 257°
2026-05-07 08:07 -6.73693 112.62237 15819 ft 379 kts 257°
2026-05-07 08:07 -6.74272 112.59652 15352 ft 376 kts 257°
2026-05-07 08:07 -6.74846 112.57104 14885 ft 373 kts 257°
2026-05-07 08:08 -6.75417 112.54558 14430 ft 371 kts 257°
2026-05-07 08:08 -6.76022 112.52042 13983 ft 369 kts 250°
2026-05-07 08:08 -6.77220 112.49791 13533 ft 367 kts 230°
2026-05-07 08:08 -6.79089 112.48088 13055 ft 360 kts 211°
2026-05-07 08:09 -6.81379 112.47170 12706 ft 349 kts 189°
2026-05-07 08:09 -6.83751 112.47150 12400 ft 336 kts 168°
2026-05-07 08:09 -6.85995 112.47693 12116 ft 326 kts 163°
2026-05-07 08:09 -6.88167 112.48274 11817 ft 319 kts 165°
2026-05-07 08:10 -6.90291 112.48739 11415 ft 307 kts 168°
2026-05-07 08:10 -6.92343 112.49088 11021 ft 298 kts 169°
2026-05-07 08:10 -6.94387 112.49372 10631 ft 294 kts 171°
2026-05-07 08:10 -6.96417 112.49625 10246 ft 293 kts 172°
2026-05-07 08:11 -6.98440 112.49862 9870 ft 293 kts 171°
2026-05-07 08:11 -7.00454 112.50089 9476 ft 291 kts 172°
2026-05-07 08:11 -7.02465 112.50310 9074 ft 289 kts 171°
2026-05-07 08:11 -7.04462 112.50531 8669 ft 288 kts 172°
2026-05-07 08:12 -7.06449 112.50753 8268 ft 286 kts 172°
2026-05-07 08:12 -7.08417 112.50971 7885 ft 282 kts 171°
2026-05-07 08:12 -7.10361 112.51194 7501 ft 280 kts 171°
2026-05-07 08:12 -7.12290 112.51411 7137 ft 278 kts 172°
2026-05-07 08:13 -7.14189 112.51621 6763 ft 271 kts 172°
2026-05-07 08:13 -7.16069 112.51833 6407 ft 271 kts 171°
2026-05-07 08:13 -7.17928 112.52036 6046 ft 268 kts 172°
2026-05-07 08:13 -7.19754 112.52243 5664 ft 264 kts 171°
2026-05-07 08:14 -7.21558 112.52455 5302 ft 256 kts 171°
2026-05-07 08:14 -7.23302 112.52649 4961 ft 246 kts 171°
2026-05-07 08:14 -7.24982 112.52844 4647 ft 241 kts 169°
2026-05-07 08:14 -7.26604 112.53041 4331 ft 234 kts 170°
2026-05-07 08:15 -7.28234 112.53232 4022 ft 234 kts 171°
2026-05-07 08:15 -7.29827 112.53405 3691 ft 227 kts 171°
2026-05-07 08:15 -7.31350 112.53574 3610 ft 219 kts 170°
2026-05-07 08:15 -7.32872 112.53856 3516 ft 219 kts 154°
2026-05-07 08:16 -7.33979 112.54775 3423 ft 203 kts 116°
2026-05-07 08:16 -7.34374 112.56084 3294 ft 192 kts 99°
2026-05-07 08:16 -7.34546 112.57401 3215 ft 190 kts 99°
2026-05-07 08:16 -7.34771 112.58740 3132 ft 193 kts 99°
2026-05-07 08:17 -7.34977 112.60077 3050 ft 191 kts 99°
2026-05-07 08:17 -7.35178 112.61345 2956 ft 181 kts 100°
2026-05-07 08:17 -7.35381 112.62593 2768 ft 179 kts 99°
2026-05-07 08:17 -7.35596 112.63829 2564 ft 183 kts 98°
2026-05-07 08:18 -7.35778 112.65071 2340 ft 180 kts 99°
2026-05-07 08:18 -7.35987 112.66323 2116 ft 182 kts 99°
2026-05-07 08:18 -7.36190 112.67565 1891 ft 186 kts 99°
2026-05-07 08:18 -7.36388 112.68845 1656 ft 183 kts 96°
2026-05-07 08:19 -7.36589 112.70099 1424 ft 179 kts 100°
2026-05-07 08:19 -7.36789 112.71300 1189 ft 170 kts 97°
2026-05-07 08:19 -7.36981 112.72459 981 ft 163 kts 97°
2026-05-07 08:19 -7.37153 112.73562 771 ft 156 kts 98°
2026-05-07 08:20 -7.37323 112.74600 588 ft 142 kts 99°
2026-05-07 08:20 -7.37465 112.75508 402 ft 121 kts 98°
2026-05-07 08:20 -7.37608 112.76370 278 ft 123 kts 98°
2026-05-07 08:20 -7.37747 112.77214 123 ft 123 kts 98°
2026-05-07 08:21 -7.37882 112.78046 12 ft 114 kts 99°
2026-05-07 08:21 -7.37980 112.78675 10 ft 62 kts 99°
2026-05-07 08:21 -7.38037 112.79017 11 ft 42 kts 99°
2026-05-07 08:21 -7.38043 112.79233 11 ft 22 kts 74°
2026-05-07 08:22 -7.37998 112.79370 9 ft 14 kts 66°
2026-05-07 08:22 -7.37918 112.79419 9 ft 16 kts
2026-05-07 08:22 -7.37833 112.79428 9 ft 9 kts 10°
2026-05-07 08:22 -7.37755 112.79442 10 ft 11 kts
2026-05-07 08:23 -7.37682 112.79463 9 ft 10 kts 50°
2026-05-07 08:23 -7.37688 112.79513 9 ft 9 kts 101°
2026-05-07 08:23 -7.37700 112.79586 9 ft 12 kts 99°
2026-05-07 08:23 -7.37683 112.79639 9 ft 6 kts 19°
2026-05-07 08:24 -7.37638 112.79643 10 ft 3 kts
2026-05-07 08:24 -7.37620 112.79646 9 ft 0 kts